Retour au catalogue

IRIDIUM 171

ActifCommunicationsPO
NORAD 43929·PAYLOAD·🇺🇸 United States

Lancé Jan 11, 2019 depuis Vandenberg Space Force Base

Loading…

Prochains Passages (prochaines 24 heures)

TLE

FraisSource: CelesTrak SupGP

Époque: Sep 14, 2026, 09:54 UTC

1 43929C 19002H   26257.41284722 -.00001787  00000+0 -63912-3 0  2576
2 43929  86.3986 316.6109 0002165  95.1515 355.7157 14.34217341    19

Suivez IRIDIUM 171 en temps réel avec AllMySat

Download on the App Store